Location: Härggis
(46.9540°N, 8.4897°E)
Time: 21:27:57
(UTC+00:00)

SL-16 R/B - Pass Details

Date: 29 September 2022
Orbit: 985 x 1007 km, 99.6° (Epoch: 05 December)

Event Time Altitude Azimuth Distance (km) Brightness Sun altitude
Exits shadow 23:14:03 13° 41° (NE) 2,567 5.0 -45.7°
Drops below altitude 10° 23:16:03 10° 23° (NNE) 2,773 5.4 -45.7°
Sets 23:20:04 0° 357° (N) 3,732 6.3 -45.7°
